Starlink 3996

operational
NORAD ID: 52617 Int'l Des: 2022-052 Owner: SPXS Country: US Constellation: starlink
LEOCIRCULAR

Über Starlink 3996

Beschreibung wird geladen...

Live-Position

3D-Globus wird geladen...

Nächste Überflüge

Höhenverlauf

Altitude vs Time

uPlot chart will show altitude changes over time

Zweizeiliger Elementsatz

1 52617U 22052V 25296.95929058 .00001862 00000-0 13503-3 0 9995
2 52617 53.2166 162.9312 0001388 91.5036 268.6115 15.08849698190348
Epoch: 23. Okt. 2025 • Age: 16 hours

Aktueller Status

Höhe 555.8 km
Geschwindigkeit 7.58 km/s
Subsatellitenpunkt -44.89°S, 140.78°W
Startdatum 14. Mai 2022
Alter 3.4 years
Typ internet

Technische Details

Klassifizierung Payload
Masse 297.00 kg
Trockenmasse 275.00 kg
Gesamtmasse 297.00 kg
Länge 0.20 m
Durchmesser 2.80 m
Spannweite 9.00 m
Form Box + pan
Hersteller SPXS
Bus-Typ Starlink
Phasenstatus In Orbit
Besitzer/Staat SPXS/US

Große Konstellationen

Loading constellations...